Multibeam Report for MGL1002


Ship Name: Marcus G. Langseth
Chief Scientist: Diebold, John
Lamont-Doherty Earth Observatory
Source Organization: Marine Geoscience Data System (MGDS)
Start Date: 2010-05-07
End Date: 2010-05-19


View ISO Metadata

Visit the full NCEI Bathymetry Viewer


Multibeam Bathymetry

Cruise Details

Project: Multibeam system trials and transit
Instrument: Simrad EM122

Data Quality

Number of Files: 537
Number of Records: 164200
BATHYMETRY DATA Quantity Percentage
Number of Beams 70889904 100%
Number of Good Beams 66013235 93.12%
Number of Zero Beams 0 0%
Number of Flagged Beams 4876669 6.88%
AMPLITUDE DATA Quantity Percentage
Number of Beams 70889904 100%
Number of Good Beams 66013235 93.12%
Number of Zero Beams 0 0%
Number of Flagged Beams 4876669 6.88%
SIDESCAN DATA Quantity Percentage
Number of Pixels 168132608 100%
Number of Good Pixels 147499549 87.73%
Number of Zero Pixels 0 0%
Number of Flagged Pixels 20633059 12.27%

Navigation Totals

Total Time: 263.9964 hours
Total Track Length: 4867.1779 km
Average Speed: 18.437 km/hr (9.9552 knots)

Cruise Bounds

Northern Extent: 46.26251
Southern Extent: 20.992836
Western Extent: -159.04697
Eastern Extent: -124.168976

Limits

Minimum Sonar Depth 3.5314 Maximum Sonar Depth 11.5005
Minimum Altitude 0 Maximum Altitude 9708.2773
Minimum Depth 5.1363 Maximum Depth 10587.7061
Minimum Amplitude 0 Maximum Amplitude 41.2
Minimum Sidescan 0 Maximum Sidescan 36.54

File Information

Full Resolution Bathymetry as collected (raw): 536

Files File Size Description
0000_20100507_235001_Langseth.all.mb58.gz 85.61MB Kongsberg multibeam vendor format
0000_20100517_004945_ShipName.all.mb58.gz 9.31MB Kongsberg multibeam vendor format
0000_20100517_013821_ShipName.all.mb58.gz 10.31MB Kongsberg multibeam vendor format
0000_20100517_064741_Langseth.all.mb58.gz 2.46MB Kongsberg multibeam vendor format
0000_20100517_085854_Langseth.all.mb58.gz 4.95MB Kongsberg multibeam vendor format
0000_20100517_101524_Langseth.all.mb58.gz 16.67MB Kongsberg multibeam vendor format
0000_20100517_142452_Langseth.all.mb58.gz 8.00MB Kongsberg multibeam vendor format
0000_20100517_185105_Langseth.all.mb58.gz 3.36MB Kongsberg multibeam vendor format
0000_20100518_002732_Langseth.all.mb58.gz 5.67MB Kongsberg multibeam vendor format
0000_20100518_192051_Langseth.all.mb58.gz 2.80MB Kongsberg multibeam vendor format
0000_20100518_194225_Langseth.all.mb58.gz 8.32MB Kongsberg multibeam vendor format
0000_20100519_093850_Langseth.all.mb58.gz 21.06MB Kongsberg multibeam vendor format
0001_20100508_001957_Langseth.all.mb58.gz 45.56MB Kongsberg multibeam vendor format
0001_20100517_012025_ShipName.all.mb58.gz 4.15MB Kongsberg multibeam vendor format
0001_20100517_020822_ShipName.all.mb58.gz 6.58MB Kongsberg multibeam vendor format
0001_20100517_065425_Langseth.all.mb58.gz 17.87MB Kongsberg multibeam vendor format
0001_20100517_091648_Langseth.all.mb58.gz 7.25MB Kongsberg multibeam vendor format
0001_20100517_111521_Langseth.all.mb58.gz 13.41MB Kongsberg multibeam vendor format
0001_20100517_145300_Langseth.all.mb58.gz 2.78MB Kongsberg multibeam vendor format
0001_20100517_190429_Langseth.all.mb58.gz 1.98MB Kongsberg multibeam vendor format
0001_20100518_004815_Langseth.all.mb58.gz 0.96MB Kongsberg multibeam vendor format
0001_20100518_201256_Langseth.all.mb58.gz 14.75MB Kongsberg multibeam vendor format
0001_20100519_103846_Langseth.all.mb58.gz 28.43MB Kongsberg multibeam vendor format
0002_20100507_222057_ShipName.all.mb58.gz 61.31MB Kongsberg multibeam vendor format
0002_20100508_004957_Langseth.all.mb58.gz 39.18MB Kongsberg multibeam vendor format
0002_20100517_022732_ShipName.all.mb58.gz 10.47MB Kongsberg multibeam vendor format
0002_20100517_075416_Langseth.all.mb58.gz 15.34MB Kongsberg multibeam vendor format
0002_20100517_094250_Langseth.all.mb58.gz 4.63MB Kongsberg multibeam vendor format
0002_20100517_120538_Langseth.all.mb58.gz 9.06MB Kongsberg multibeam vendor format
0002_20100517_150314_Langseth.all.mb58.gz 8.58MB Kongsberg multibeam vendor format
0002_20100517_200418_Langseth.all.mb58.gz 13.78MB Kongsberg multibeam vendor format
0002_20100518_005143_Langseth.all.mb58.gz 16.26MB Kongsberg multibeam vendor format
0002_20100518_210629_Langseth.all.mb58.gz 4.06MB Kongsberg multibeam vendor format
0002_20100519_113847_Langseth.all.mb58.gz 68.56MB Kongsberg multibeam vendor format
0003_20100507_225057_ShipName.all.mb58.gz 59.32MB Kongsberg multibeam vendor format
0003_20100508_011957_Langseth.all.mb58.gz 35.09MB Kongsberg multibeam vendor format
0003_20100517_025726_ShipName.all.mb58.gz 10.83MB Kongsberg multibeam vendor format
0003_20100517_123849_Langseth.all.mb58.gz 12.06MB Kongsberg multibeam vendor format
0003_20100517_153307_Langseth.all.mb58.gz 3.24MB Kongsberg multibeam vendor format
0003_20100517_205536_Langseth.all.mb58.gz 3.56MB Kongsberg multibeam vendor format
0003_20100518_015143_Langseth.all.mb58.gz 16.25MB Kongsberg multibeam vendor format
0003_20100518_212147_Langseth.all.mb58.gz 2.26MB Kongsberg multibeam vendor format
0003_20100519_123847_Langseth.all.mb58.gz 71.59MB Kongsberg multibeam vendor format
0004_20100507_232057_ShipName.all.mb58.gz 5.57MB Kongsberg multibeam vendor format
0004_20100508_014957_Langseth.all.mb58.gz 34.49MB Kongsberg multibeam vendor format
0004_20100517_032553_ShipName.all.mb58.gz 1.33MB Kongsberg multibeam vendor format
0004_20100517_132226_Langseth.all.mb58.gz 8.22MB Kongsberg multibeam vendor format
0004_20100517_154438_Langseth.all.mb58.gz 15.85MB Kongsberg multibeam vendor format
0004_20100517_210802_Langseth.all.mb58.gz 0.99MB Kongsberg multibeam vendor format
0004_20100518_025141_Langseth.all.mb58.gz 2.03MB Kongsberg multibeam vendor format
0004_20100518_212924_Langseth.all.mb58.gz 1.78MB Kongsberg multibeam vendor format
0004_20100519_133846_Langseth.all.mb58.gz 65.25MB Kongsberg multibeam vendor format
0005_20100507_233406_ShipName.all.mb58.gz 17.16MB Kongsberg multibeam vendor format
0005_20100508_021957_Langseth.all.mb58.gz 27.42MB Kongsberg multibeam vendor format
0005_20100517_032920_ShipName.all.mb58.gz 22.18MB Kongsberg multibeam vendor format
0005_20100517_135203_Langseth.all.mb58.gz 221.2KB Kongsberg multibeam vendor format
0005_20100517_135543_Langseth.all.mb58.gz 3.18MB Kongsberg multibeam vendor format
0005_20100517_164008_Langseth.all.mb58.gz 2.74MB Kongsberg multibeam vendor format
0005_20100517_221932_Langseth.all.mb58.gz 2.91MB Kongsberg multibeam vendor format
0005_20100518_025901_Langseth.all.mb58.gz 7.18MB Kongsberg multibeam vendor format
0005_20100518_214117_Langseth.all.mb58.gz 16.32MB Kongsberg multibeam vendor format
0005_20100519_143847_Langseth.all.mb58.gz 66.74MB Kongsberg multibeam vendor format
0006_20100507_234135_ShipName.all.mb58.gz 1.57MB Kongsberg multibeam vendor format
0006_20100508_024957_Langseth.all.mb58.gz 16.83MB Kongsberg multibeam vendor format
0006_20100517_042919_ShipName.all.mb58.gz 2.07MB Kongsberg multibeam vendor format
0006_20100517_141449_Langseth.all.mb58.gz 2.18MB Kongsberg multibeam vendor format
0006_20100517_223004_Langseth.all.mb58.gz 6.65MB Kongsberg multibeam vendor format
0006_20100518_032430_Langseth.all.mb58.gz 16.24MB Kongsberg multibeam vendor format
0006_20100518_223040_Langseth.all.mb58.gz 17.16MB Kongsberg multibeam vendor format
0006_20100519_153846_Langseth.all.mb58.gz 66.08MB Kongsberg multibeam vendor format
0007_20100508_031958_Langseth.all.mb58.gz 13.15MB Kongsberg multibeam vendor format
0007_20100517_045444_ShipName.all.mb58.gz 14.84MB Kongsberg multibeam vendor format
0007_20100517_233558_Langseth.all.mb58.gz 2.13MB Kongsberg multibeam vendor format
0007_20100518_042424_Langseth.all.mb58.gz 13.47MB Kongsberg multibeam vendor format
0007_20100518_232734_Langseth.all.mb58.gz 6.93MB Kongsberg multibeam vendor format
0007_20100519_163847_Langseth.all.mb58.gz 68.29MB Kongsberg multibeam vendor format
0008_20100508_035002_Langseth.all.mb58.gz 9.17MB Kongsberg multibeam vendor format
0008_20100518_071236_Langseth.all.mb58.gz 5.14MB Kongsberg multibeam vendor format
0008_20100518_234852_Langseth.all.mb58.gz 61.07MB Kongsberg multibeam vendor format
0008_20100519_173845_Langseth.all.mb58.gz 19.28MB Kongsberg multibeam vendor format
0009_20100508_041959_Langseth.all.mb58.gz 9.48MB Kongsberg multibeam vendor format
0009_20100517_164946_Langseth.all.mb58.gz 2.45MB Kongsberg multibeam vendor format
0009_20100518_073116_Langseth.all.mb58.gz 16.23MB Kongsberg multibeam vendor format
0009_20100519_004842_Langseth.all.mb58.gz 66.47MB Kongsberg multibeam vendor format
0010_20100508_044957_Langseth.all.mb58.gz 12.34MB Kongsberg multibeam vendor format
0010_20100517_165805_Langseth.all.mb58.gz 15.52MB Kongsberg multibeam vendor format
0010_20100518_083110_Langseth.all.mb58.gz 5.56MB Kongsberg multibeam vendor format
0010_20100519_014841_Langseth.all.mb58.gz 67.84MB Kongsberg multibeam vendor format
0011_20100508_051957_Langseth.all.mb58.gz 9.45MB Kongsberg multibeam vendor format
0011_20100517_175305_Langseth.all.mb58.gz 5.45MB Kongsberg multibeam vendor format
0011_20100518_085139_Langseth.all.mb58.gz 5.47MB Kongsberg multibeam vendor format
0011_20100519_034251_Langseth.all.mb58.gz 36.16MB Kongsberg multibeam vendor format
0012_20100508_055000_Langseth.all.mb58.gz 7.60MB Kongsberg multibeam vendor format
0012_20100518_091138_Langseth.all.mb58.gz 16.26MB Kongsberg multibeam vendor format
0012_20100519_044255_Langseth.all.mb58.gz 14.73MB Kongsberg multibeam vendor format
0013_20100508_062004_Langseth.all.mb58.gz 7.39MB Kongsberg multibeam vendor format
0013_20100518_101143_Langseth.all.mb58.gz 7.17MB Kongsberg multibeam vendor format
0013_20100519_052706_Langseth.all.mb58.gz 9.73MB Kongsberg multibeam vendor format
0014_20100508_065003_Langseth.all.mb58.gz 7.16MB Kongsberg multibeam vendor format
0014_20100518_103759_Langseth.all.mb58.gz 4.45MB Kongsberg multibeam vendor format
0014_20100519_060707_Langseth.all.mb58.gz 17.60MB Kongsberg multibeam vendor format
0015_20100508_071956_Langseth.all.mb58.gz 7.14MB Kongsberg multibeam vendor format
0015_20100518_105419_Langseth.all.mb58.gz 16.13MB Kongsberg multibeam vendor format
0015_20100519_070752_Langseth.all.mb58.gz 1.74MB Kongsberg multibeam vendor format
0016_20100508_075008_Langseth.all.mb58.gz 6.98MB Kongsberg multibeam vendor format
0016_20100518_115422_Langseth.all.mb58.gz 2.58MB Kongsberg multibeam vendor format
0016_20100519_072254_Langseth.all.mb58.gz 17.78MB Kongsberg multibeam vendor format
0017_20100508_081958_Langseth.all.mb58.gz 7.07MB Kongsberg multibeam vendor format
0017_20100518_120406_Langseth.all.mb58.gz 49.7KB Kongsberg multibeam vendor format
0017_20100519_082716_Langseth.all.mb58.gz 13.33MB Kongsberg multibeam vendor format
0018_20100508_085003_Langseth.all.mb58.gz 7.00MB Kongsberg multibeam vendor format
0018_20100518_140336_Langseth.all.mb58.gz 16.03MB Kongsberg multibeam vendor format
0019_20100508_092011_Langseth.all.mb58.gz 6.90MB Kongsberg multibeam vendor format
0019_20100518_150327_Langseth.all.mb58.gz 2.36MB Kongsberg multibeam vendor format
0020_20100508_095008_Langseth.all.mb58.gz 6.90MB Kongsberg multibeam vendor format
0020_20100518_151211_Langseth.all.mb58.gz 3.80MB Kongsberg multibeam vendor format
0021_20100508_101959_Langseth.all.mb58.gz 6.87MB Kongsberg multibeam vendor format
0021_20100518_152620_Langseth.all.mb58.gz 15.87MB Kongsberg multibeam vendor format
0022_20100508_104958_Langseth.all.mb58.gz 6.86MB Kongsberg multibeam vendor format
0022_20100518_162608_Langseth.all.mb58.gz 3.95MB Kongsberg multibeam vendor format
0023_20100508_112008_Langseth.all.mb58.gz 6.80MB Kongsberg multibeam vendor format
0023_20100518_164054_Langseth.all.mb58.gz 4.44MB Kongsberg multibeam vendor format
0024_20100508_115006_Langseth.all.mb58.gz 6.74MB Kongsberg multibeam vendor format
0024_20100518_165721_Langseth.all.mb58.gz 15.98MB Kongsberg multibeam vendor format
0025_20100508_122002_Langseth.all.mb58.gz 6.73MB Kongsberg multibeam vendor format
0025_20100518_175716_Langseth.all.mb58.gz 2.53MB Kongsberg multibeam vendor format
0026_20100508_125003_Langseth.all.mb58.gz 6.76MB Kongsberg multibeam vendor format
0026_20100518_180622_Langseth.all.mb58.gz 3.76MB Kongsberg multibeam vendor format
0027_20100508_132006_Langseth.all.mb58.gz 6.72MB Kongsberg multibeam vendor format
0027_20100518_181952_Langseth.all.mb58.gz 1.79MB Kongsberg multibeam vendor format
0028_20100508_135005_Langseth.all.mb58.gz 6.72MB Kongsberg multibeam vendor format
0028_20100518_182631_Langseth.all.mb58.gz 2.63MB Kongsberg multibeam vendor format
0029_20100508_142001_Langseth.all.mb58.gz 6.70MB Kongsberg multibeam vendor format
0029_20100518_183609_Langseth.all.mb58.gz 5.04MB Kongsberg multibeam vendor format
0030_20100508_144958_Langseth.all.mb58.gz 6.61MB Kongsberg multibeam vendor format
0031_20100508_151956_Langseth.all.mb58.gz 6.71MB Kongsberg multibeam vendor format
0032_20100508_155007_Langseth.all.mb58.gz 6.62MB Kongsberg multibeam vendor format
0033_20100508_162001_Langseth.all.mb58.gz 6.69MB Kongsberg multibeam vendor format
0034_20100508_165000_Langseth.all.mb58.gz 2.39MB Kongsberg multibeam vendor format
0035_20100508_170046_Langseth.all.mb58.gz 6.63MB Kongsberg multibeam vendor format
0036_20100508_173041_Langseth.all.mb58.gz 6.67MB Kongsberg multibeam vendor format
0037_20100508_180047_Langseth.all.mb58.gz 5.48MB Kongsberg multibeam vendor format
0040_20100508_182933_Langseth.all.mb58.gz 1.42MB Kongsberg multibeam vendor format
0042_20100508_183733_Langseth.all.mb58.gz 9.29MB Kongsberg multibeam vendor format
0043_20100508_190720_Langseth.all.mb58.gz 9.38MB Kongsberg multibeam vendor format
0044_20100508_193720_Langseth.all.mb58.gz 8.84MB Kongsberg multibeam vendor format
0045_20100508_200726_Langseth.all.mb58.gz 9.20MB Kongsberg multibeam vendor format
0046_20100508_203725_Langseth.all.mb58.gz 8.82MB Kongsberg multibeam vendor format
0047_20100508_210720_Langseth.all.mb58.gz 9.17MB Kongsberg multibeam vendor format
0048_20100508_213724_Langseth.all.mb58.gz 9.36MB Kongsberg multibeam vendor format
0049_20100508_220721_Langseth.all.mb58.gz 9.01MB Kongsberg multibeam vendor format
0050_20100508_223730_Langseth.all.mb58.gz 8.71MB Kongsberg multibeam vendor format
0051_20100508_230718_Langseth.all.mb58.gz 8.87MB Kongsberg multibeam vendor format
0052_20100508_233728_Langseth.all.mb58.gz 8.74MB Kongsberg multibeam vendor format
0053_20100509_000727_Langseth.all.mb58.gz 8.51MB Kongsberg multibeam vendor format
0054_20100509_003721_Langseth.all.mb58.gz 8.72MB Kongsberg multibeam vendor format
0055_20100509_010723_Langseth.all.mb58.gz 8.79MB Kongsberg multibeam vendor format
0056_20100509_013725_Langseth.all.mb58.gz 8.84MB Kongsberg multibeam vendor format
0057_20100509_020724_Langseth.all.mb58.gz 8.91MB Kongsberg multibeam vendor format
0058_20100509_023731_Langseth.all.mb58.gz 8.87MB Kongsberg multibeam vendor format
0059_20100509_030719_Langseth.all.mb58.gz 8.81MB Kongsberg multibeam vendor format
0060_20100509_033729_Langseth.all.mb58.gz 8.70MB Kongsberg multibeam vendor format
0061_20100509_040724_Langseth.all.mb58.gz 8.92MB Kongsberg multibeam vendor format
0062_20100509_043728_Langseth.all.mb58.gz 8.82MB Kongsberg multibeam vendor format
0063_20100509_050732_Langseth.all.mb58.gz 8.78MB Kongsberg multibeam vendor format
0064_20100509_053720_Langseth.all.mb58.gz 8.84MB Kongsberg multibeam vendor format
0065_20100509_060719_Langseth.all.mb58.gz 8.96MB Kongsberg multibeam vendor format
0066_20100509_063725_Langseth.all.mb58.gz 8.58MB Kongsberg multibeam vendor format
0067_20100509_070735_Langseth.all.mb58.gz 8.81MB Kongsberg multibeam vendor format
0068_20100509_073722_Langseth.all.mb58.gz 9.18MB Kongsberg multibeam vendor format
0069_20100509_080723_Langseth.all.mb58.gz 9.23MB Kongsberg multibeam vendor format
0070_20100509_083722_Langseth.all.mb58.gz 9.15MB Kongsberg multibeam vendor format
0071_20100509_090722_Langseth.all.mb58.gz 9.11MB Kongsberg multibeam vendor format
0072_20100509_093726_Langseth.all.mb58.gz 8.78MB Kongsberg multibeam vendor format
0073_20100509_100719_Langseth.all.mb58.gz 8.93MB Kongsberg multibeam vendor format
0074_20100509_103726_Langseth.all.mb58.gz 9.01MB Kongsberg multibeam vendor format
0075_20100509_110720_Langseth.all.mb58.gz 9.13MB Kongsberg multibeam vendor format
0076_20100509_113731_Langseth.all.mb58.gz 9.11MB Kongsberg multibeam vendor format
0077_20100509_120721_Langseth.all.mb58.gz 8.80MB Kongsberg multibeam vendor format
0078_20100509_123728_Langseth.all.mb58.gz 8.79MB Kongsberg multibeam vendor format
0079_20100509_130719_Langseth.all.mb58.gz 8.46MB Kongsberg multibeam vendor format
0080_20100509_133735_Langseth.all.mb58.gz 8.24MB Kongsberg multibeam vendor format
0081_20100509_140726_Langseth.all.mb58.gz 8.83MB Kongsberg multibeam vendor format
0082_20100509_143726_Langseth.all.mb58.gz 8.81MB Kongsberg multibeam vendor format
0083_20100509_150723_Langseth.all.mb58.gz 6.15MB Kongsberg multibeam vendor format
0084_20100509_154312_Langseth.all.mb58.gz 8.94MB Kongsberg multibeam vendor format
0085_20100509_161320_Langseth.all.mb58.gz 8.52MB Kongsberg multibeam vendor format
0086_20100509_164316_Langseth.all.mb58.gz 8.76MB Kongsberg multibeam vendor format
0087_20100509_171314_Langseth.all.mb58.gz 8.80MB Kongsberg multibeam vendor format
0088_20100509_174315_Langseth.all.mb58.gz 8.73MB Kongsberg multibeam vendor format
0089_20100509_181321_Langseth.all.mb58.gz 8.34MB Kongsberg multibeam vendor format
0090_20100509_184312_Langseth.all.mb58.gz 8.75MB Kongsberg multibeam vendor format
0091_20100509_191318_Langseth.all.mb58.gz 8.65MB Kongsberg multibeam vendor format
0092_20100509_194315_Langseth.all.mb58.gz 8.88MB Kongsberg multibeam vendor format
0093_20100509_201322_Langseth.all.mb58.gz 8.67MB Kongsberg multibeam vendor format
0094_20100509_204322_Langseth.all.mb58.gz 8.57MB Kongsberg multibeam vendor format
0095_20100509_211325_Langseth.all.mb58.gz 8.58MB Kongsberg multibeam vendor format
0096_20100509_214318_Langseth.all.mb58.gz 8.70MB Kongsberg multibeam vendor format
0097_20100509_221327_Langseth.all.mb58.gz 8.55MB Kongsberg multibeam vendor format
0098_20100509_224318_Langseth.all.mb58.gz 8.47MB Kongsberg multibeam vendor format
0099_20100509_231322_Langseth.all.mb58.gz 8.34MB Kongsberg multibeam vendor format
0100_20100509_234313_Langseth.all.mb58.gz 8.20MB Kongsberg multibeam vendor format
0101_20100510_001325_Langseth.all.mb58.gz 8.41MB Kongsberg multibeam vendor format
0102_20100510_004327_Langseth.all.mb58.gz 8.17MB Kongsberg multibeam vendor format
0103_20100510_011313_Langseth.all.mb58.gz 8.62MB Kongsberg multibeam vendor format
0104_20100510_014312_Langseth.all.mb58.gz 8.69MB Kongsberg multibeam vendor format
0105_20100510_021315_Langseth.all.mb58.gz 8.59MB Kongsberg multibeam vendor format
0106_20100510_024322_Langseth.all.mb58.gz 8.77MB Kongsberg multibeam vendor format
0107_20100510_031315_Langseth.all.mb58.gz 8.92MB Kongsberg multibeam vendor format
0108_20100510_034314_Langseth.all.mb58.gz 8.90MB Kongsberg multibeam vendor format
0109_20100510_041323_Langseth.all.mb58.gz 8.44MB Kongsberg multibeam vendor format
0110_20100510_044328_Langseth.all.mb58.gz 8.19MB Kongsberg multibeam vendor format
0111_20100510_051325_Langseth.all.mb58.gz 8.15MB Kongsberg multibeam vendor format
0112_20100510_054327_Langseth.all.mb58.gz 8.19MB Kongsberg multibeam vendor format
0113_20100510_061316_Langseth.all.mb58.gz 8.30MB Kongsberg multibeam vendor format
0114_20100510_064315_Langseth.all.mb58.gz 8.24MB Kongsberg multibeam vendor format
0115_20100510_071316_Langseth.all.mb58.gz 8.30MB Kongsberg multibeam vendor format
0116_20100510_074319_Langseth.all.mb58.gz 8.13MB Kongsberg multibeam vendor format
0117_20100510_081314_Langseth.all.mb58.gz 8.23MB Kongsberg multibeam vendor format
0118_20100510_084314_Langseth.all.mb58.gz 8.40MB Kongsberg multibeam vendor format
0119_20100510_091323_Langseth.all.mb58.gz 8.25MB Kongsberg multibeam vendor format
0120_20100510_094312_Langseth.all.mb58.gz 8.40MB Kongsberg multibeam vendor format
0121_20100510_101328_Langseth.all.mb58.gz 8.44MB Kongsberg multibeam vendor format
0122_20100510_104319_Langseth.all.mb58.gz 8.51MB Kongsberg multibeam vendor format
0123_20100510_111326_Langseth.all.mb58.gz 8.46MB Kongsberg multibeam vendor format
0124_20100510_114329_Langseth.all.mb58.gz 8.54MB Kongsberg multibeam vendor format
0125_20100510_121327_Langseth.all.mb58.gz 8.50MB Kongsberg multibeam vendor format
0126_20100510_124319_Langseth.all.mb58.gz 8.56MB Kongsberg multibeam vendor format
0127_20100510_131318_Langseth.all.mb58.gz 8.59MB Kongsberg multibeam vendor format
0128_20100510_134318_Langseth.all.mb58.gz 8.59MB Kongsberg multibeam vendor format
0129_20100510_141325_Langseth.all.mb58.gz 8.44MB Kongsberg multibeam vendor format
0130_20100510_144313_Langseth.all.mb58.gz 8.57MB Kongsberg multibeam vendor format
0131_20100510_151325_Langseth.all.mb58.gz 8.42MB Kongsberg multibeam vendor format
0132_20100510_154322_Langseth.all.mb58.gz 8.21MB Kongsberg multibeam vendor format
0133_20100510_161314_Langseth.all.mb58.gz 1.11MB Kongsberg multibeam vendor format
0134_20100510_162932_Langseth.all.mb58.gz 7.87MB Kongsberg multibeam vendor format
0135_20100510_165939_Langseth.all.mb58.gz 8.06MB Kongsberg multibeam vendor format
0136_20100510_172943_Langseth.all.mb58.gz 8.41MB Kongsberg multibeam vendor format
0137_20100510_175940_Langseth.all.mb58.gz 8.38MB Kongsberg multibeam vendor format
0138_20100510_182942_Langseth.all.mb58.gz 7.32MB Kongsberg multibeam vendor format
0139_20100510_185939_Langseth.all.mb58.gz 6.74MB Kongsberg multibeam vendor format
0140_20100510_192954_Langseth.all.mb58.gz 6.50MB Kongsberg multibeam vendor format
0141_20100510_195941_Langseth.all.mb58.gz 6.61MB Kongsberg multibeam vendor format
0142_20100510_202934_Langseth.all.mb58.gz 6.57MB Kongsberg multibeam vendor format
0143_20100510_205940_Langseth.all.mb58.gz 6.65MB Kongsberg multibeam vendor format
0144_20100510_212954_Langseth.all.mb58.gz 8.21MB Kongsberg multibeam vendor format
0145_20100510_215935_Langseth.all.mb58.gz 8.39MB Kongsberg multibeam vendor format
0146_20100510_222936_Langseth.all.mb58.gz 8.18MB Kongsberg multibeam vendor format
0147_20100510_225937_Langseth.all.mb58.gz 8.04MB Kongsberg multibeam vendor format
0148_20100510_232944_Langseth.all.mb58.gz 7.90MB Kongsberg multibeam vendor format
0149_20100510_235932_Langseth.all.mb58.gz 8.02MB Kongsberg multibeam vendor format
0150_20100511_002936_Langseth.all.mb58.gz 8.10MB Kongsberg multibeam vendor format
0151_20100511_005943_Langseth.all.mb58.gz 8.02MB Kongsberg multibeam vendor format
0152_20100511_012941_Langseth.all.mb58.gz 7.90MB Kongsberg multibeam vendor format
0153_20100511_015935_Langseth.all.mb58.gz 7.67MB Kongsberg multibeam vendor format
0154_20100511_022937_Langseth.all.mb58.gz 7.84MB Kongsberg multibeam vendor format
0155_20100511_025950_Langseth.all.mb58.gz 7.62MB Kongsberg multibeam vendor format
0156_20100511_032937_Langseth.all.mb58.gz 7.77MB Kongsberg multibeam vendor format
0157_20100511_035934_Langseth.all.mb58.gz 1.68MB Kongsberg multibeam vendor format
0158_20100511_042821_Langseth.all.mb58.gz 7.52MB Kongsberg multibeam vendor format
0159_20100511_045843_Langseth.all.mb58.gz 7.46MB Kongsberg multibeam vendor format
0160_20100511_052833_Langseth.all.mb58.gz 7.69MB Kongsberg multibeam vendor format
0161_20100511_055839_Langseth.all.mb58.gz 7.52MB Kongsberg multibeam vendor format
0162_20100511_062833_Langseth.all.mb58.gz 7.71MB Kongsberg multibeam vendor format
0163_20100511_065832_Langseth.all.mb58.gz 7.69MB Kongsberg multibeam vendor format
0164_20100511_072840_Langseth.all.mb58.gz 7.50MB Kongsberg multibeam vendor format
0165_20100511_075838_Langseth.all.mb58.gz 7.47MB Kongsberg multibeam vendor format
0166_20100511_082835_Langseth.all.mb58.gz 7.53MB Kongsberg multibeam vendor format
0167_20100511_085844_Langseth.all.mb58.gz 7.46MB Kongsberg multibeam vendor format
0168_20100511_092846_Langseth.all.mb58.gz 7.48MB Kongsberg multibeam vendor format
0169_20100511_095851_Langseth.all.mb58.gz 7.50MB Kongsberg multibeam vendor format
0170_20100511_102844_Langseth.all.mb58.gz 7.27MB Kongsberg multibeam vendor format
0171_20100511_105830_Langseth.all.mb58.gz 7.23MB Kongsberg multibeam vendor format
0172_20100511_112842_Langseth.all.mb58.gz 7.37MB Kongsberg multibeam vendor format
0173_20100511_115843_Langseth.all.mb58.gz 7.46MB Kongsberg multibeam vendor format
0174_20100511_122844_Langseth.all.mb58.gz 7.37MB Kongsberg multibeam vendor format
0175_20100511_125846_Langseth.all.mb58.gz 7.33MB Kongsberg multibeam vendor format
0176_20100511_132836_Langseth.all.mb58.gz 7.38MB Kongsberg multibeam vendor format
0177_20100511_135834_Langseth.all.mb58.gz 7.79MB Kongsberg multibeam vendor format
0178_20100511_142841_Langseth.all.mb58.gz 7.56MB Kongsberg multibeam vendor format
0179_20100511_145838_Langseth.all.mb58.gz 7.47MB Kongsberg multibeam vendor format
0180_20100511_152834_Langseth.all.mb58.gz 7.34MB Kongsberg multibeam vendor format
0181_20100511_155832_Langseth.all.mb58.gz 7.32MB Kongsberg multibeam vendor format
0182_20100511_162837_Langseth.all.mb58.gz 7.30MB Kongsberg multibeam vendor format
0183_20100511_165835_Langseth.all.mb58.gz 7.53MB Kongsberg multibeam vendor format
0184_20100511_172844_Langseth.all.mb58.gz 7.84MB Kongsberg multibeam vendor format
0185_20100511_175840_Langseth.all.mb58.gz 7.54MB Kongsberg multibeam vendor format
0186_20100511_182849_Langseth.all.mb58.gz 7.27MB Kongsberg multibeam vendor format
0187_20100511_185835_Langseth.all.mb58.gz 7.23MB Kongsberg multibeam vendor format
0188_20100511_192839_Langseth.all.mb58.gz 7.13MB Kongsberg multibeam vendor format
0189_20100511_195847_Langseth.all.mb58.gz 6.94MB Kongsberg multibeam vendor format
0190_20100511_202839_Langseth.all.mb58.gz 7.00MB Kongsberg multibeam vendor format
0191_20100511_205833_Langseth.all.mb58.gz 7.01MB Kongsberg multibeam vendor format
0192_20100511_212844_Langseth.all.mb58.gz 6.95MB Kongsberg multibeam vendor format
0193_20100511_215844_Langseth.all.mb58.gz 6.94MB Kongsberg multibeam vendor format
0194_20100511_222837_Langseth.all.mb58.gz 7.08MB Kongsberg multibeam vendor format
0195_20100511_225838_Langseth.all.mb58.gz 7.06MB Kongsberg multibeam vendor format
0196_20100511_232845_Langseth.all.mb58.gz 7.04MB Kongsberg multibeam vendor format
0197_20100511_235835_Langseth.all.mb58.gz 6.96MB Kongsberg multibeam vendor format
0198_20100512_002836_Langseth.all.mb58.gz 7.08MB Kongsberg multibeam vendor format
0199_20100512_005842_Langseth.all.mb58.gz 7.05MB Kongsberg multibeam vendor format
0200_20100512_012833_Langseth.all.mb58.gz 7.09MB Kongsberg multibeam vendor format
0201_20100512_015842_Langseth.all.mb58.gz 7.08MB Kongsberg multibeam vendor format
0202_20100512_022847_Langseth.all.mb58.gz 6.99MB Kongsberg multibeam vendor format
0203_20100512_025830_Langseth.all.mb58.gz 7.14MB Kongsberg multibeam vendor format
0204_20100512_032832_Langseth.all.mb58.gz 7.09MB Kongsberg multibeam vendor format
0205_20100512_035845_Langseth.all.mb58.gz 6.98MB Kongsberg multibeam vendor format
0206_20100512_042846_Langseth.all.mb58.gz 7.24MB Kongsberg multibeam vendor format
0207_20100512_045839_Langseth.all.mb58.gz 7.27MB Kongsberg multibeam vendor format
0208_20100512_052840_Langseth.all.mb58.gz 7.20MB Kongsberg multibeam vendor format
0209_20100512_055846_Langseth.all.mb58.gz 7.03MB Kongsberg multibeam vendor format
0210_20100512_062839_Langseth.all.mb58.gz 7.10MB Kongsberg multibeam vendor format
0211_20100512_065830_Langseth.all.mb58.gz 7.25MB Kongsberg multibeam vendor format
0212_20100512_072832_Langseth.all.mb58.gz 7.24MB Kongsberg multibeam vendor format
0213_20100512_075840_Langseth.all.mb58.gz 7.29MB Kongsberg multibeam vendor format
0214_20100512_082829_Langseth.all.mb58.gz 7.37MB Kongsberg multibeam vendor format
0215_20100512_085834_Langseth.all.mb58.gz 7.30MB Kongsberg multibeam vendor format
0216_20100512_092842_Langseth.all.mb58.gz 7.40MB Kongsberg multibeam vendor format
0217_20100512_095845_Langseth.all.mb58.gz 7.31MB Kongsberg multibeam vendor format
0218_20100512_102836_Langseth.all.mb58.gz 7.44MB Kongsberg multibeam vendor format
0219_20100512_105839_Langseth.all.mb58.gz 7.51MB Kongsberg multibeam vendor format
0220_20100512_112844_Langseth.all.mb58.gz 7.25MB Kongsberg multibeam vendor format
0221_20100512_115832_Langseth.all.mb58.gz 7.42MB Kongsberg multibeam vendor format
0222_20100512_122833_Langseth.all.mb58.gz 7.60MB Kongsberg multibeam vendor format
0223_20100512_125844_Langseth.all.mb58.gz 7.32MB Kongsberg multibeam vendor format
0224_20100512_132832_Langseth.all.mb58.gz 7.46MB Kongsberg multibeam vendor format
0225_20100512_135835_Langseth.all.mb58.gz 7.49MB Kongsberg multibeam vendor format
0226_20100512_142836_Langseth.all.mb58.gz 7.45MB Kongsberg multibeam vendor format
0227_20100512_145837_Langseth.all.mb58.gz 7.58MB Kongsberg multibeam vendor format
0228_20100512_152843_Langseth.all.mb58.gz 7.36MB Kongsberg multibeam vendor format
0229_20100512_155839_Langseth.all.mb58.gz 7.56MB Kongsberg multibeam vendor format
0230_20100512_162831_Langseth.all.mb58.gz 7.60MB Kongsberg multibeam vendor format
0231_20100512_165845_Langseth.all.mb58.gz 7.41MB Kongsberg multibeam vendor format
0232_20100512_172845_Langseth.all.mb58.gz 7.39MB Kongsberg multibeam vendor format
0233_20100512_175837_Langseth.all.mb58.gz 7.42MB Kongsberg multibeam vendor format
0234_20100512_182833_Langseth.all.mb58.gz 7.39MB Kongsberg multibeam vendor format
0235_20100512_185841_Langseth.all.mb58.gz 7.39MB Kongsberg multibeam vendor format
0236_20100512_192842_Langseth.all.mb58.gz 7.36MB Kongsberg multibeam vendor format
0237_20100512_195835_Langseth.all.mb58.gz 7.48MB Kongsberg multibeam vendor format
0238_20100512_202846_Langseth.all.mb58.gz 7.42MB Kongsberg multibeam vendor format
0239_20100512_205837_Langseth.all.mb58.gz 7.55MB Kongsberg multibeam vendor format
0240_20100512_212842_Langseth.all.mb58.gz 7.55MB Kongsberg multibeam vendor format
0241_20100512_215841_Langseth.all.mb58.gz 7.46MB Kongsberg multibeam vendor format
0242_20100512_222830_Langseth.all.mb58.gz 7.54MB Kongsberg multibeam vendor format
0243_20100512_225844_Langseth.all.mb58.gz 7.44MB Kongsberg multibeam vendor format
0244_20100512_232837_Langseth.all.mb58.gz 7.51MB Kongsberg multibeam vendor format
0245_20100512_235830_Langseth.all.mb58.gz 7.43MB Kongsberg multibeam vendor format
0246_20100513_002831_Langseth.all.mb58.gz 7.41MB Kongsberg multibeam vendor format
0247_20100513_005833_Langseth.all.mb58.gz 7.35MB Kongsberg multibeam vendor format
0248_20100513_012836_Langseth.all.mb58.gz 7.45MB Kongsberg multibeam vendor format
0249_20100513_015841_Langseth.all.mb58.gz 7.49MB Kongsberg multibeam vendor format
0250_20100513_022838_Langseth.all.mb58.gz 7.72MB Kongsberg multibeam vendor format
0251_20100513_025843_Langseth.all.mb58.gz 7.50MB Kongsberg multibeam vendor format
0252_20100513_032831_Langseth.all.mb58.gz 7.55MB Kongsberg multibeam vendor format
0253_20100513_035830_Langseth.all.mb58.gz 7.81MB Kongsberg multibeam vendor format
0254_20100513_042831_Langseth.all.mb58.gz 7.51MB Kongsberg multibeam vendor format
0255_20100513_045830_Langseth.all.mb58.gz 7.38MB Kongsberg multibeam vendor format
0256_20100513_052844_Langseth.all.mb58.gz 7.37MB Kongsberg multibeam vendor format
0257_20100513_055844_Langseth.all.mb58.gz 7.49MB Kongsberg multibeam vendor format
0258_20100513_062848_Langseth.all.mb58.gz 7.44MB Kongsberg multibeam vendor format
0259_20100513_065841_Langseth.all.mb58.gz 7.41MB Kongsberg multibeam vendor format
0260_20100513_072836_Langseth.all.mb58.gz 7.59MB Kongsberg multibeam vendor format
0261_20100513_075835_Langseth.all.mb58.gz 7.33MB Kongsberg multibeam vendor format
0262_20100513_082834_Langseth.all.mb58.gz 7.45MB Kongsberg multibeam vendor format
0263_20100513_085840_Langseth.all.mb58.gz 7.66MB Kongsberg multibeam vendor format
0264_20100513_092845_Langseth.all.mb58.gz 7.63MB Kongsberg multibeam vendor format
0265_20100513_095844_Langseth.all.mb58.gz 7.61MB Kongsberg multibeam vendor format
0266_20100513_102839_Langseth.all.mb58.gz 7.92MB Kongsberg multibeam vendor format
0267_20100513_105841_Langseth.all.mb58.gz 8.06MB Kongsberg multibeam vendor format
0268_20100513_112835_Langseth.all.mb58.gz 8.26MB Kongsberg multibeam vendor format
0269_20100513_115838_Langseth.all.mb58.gz 8.08MB Kongsberg multibeam vendor format
0270_20100513_122843_Langseth.all.mb58.gz 7.93MB Kongsberg multibeam vendor format
0271_20100513_125834_Langseth.all.mb58.gz 8.06MB Kongsberg multibeam vendor format
0272_20100513_132843_Langseth.all.mb58.gz 7.97MB Kongsberg multibeam vendor format
0273_20100513_135830_Langseth.all.mb58.gz 8.14MB Kongsberg multibeam vendor format
0274_20100513_142833_Langseth.all.mb58.gz 8.12MB Kongsberg multibeam vendor format
0275_20100513_145832_Langseth.all.mb58.gz 8.24MB Kongsberg multibeam vendor format
0276_20100513_152839_Langseth.all.mb58.gz 8.17MB Kongsberg multibeam vendor format
0277_20100513_155836_Langseth.all.mb58.gz 8.22MB Kongsberg multibeam vendor format
0278_20100513_162835_Langseth.all.mb58.gz 8.12MB Kongsberg multibeam vendor format
0279_20100513_165835_Langseth.all.mb58.gz 7.90MB Kongsberg multibeam vendor format
0280_20100513_172842_Langseth.all.mb58.gz 8.19MB Kongsberg multibeam vendor format
0281_20100513_175836_Langseth.all.mb58.gz 8.02MB Kongsberg multibeam vendor format
0282_20100513_182844_Langseth.all.mb58.gz 7.90MB Kongsberg multibeam vendor format
0283_20100513_185830_Langseth.all.mb58.gz 8.03MB Kongsberg multibeam vendor format
0284_20100513_192833_Langseth.all.mb58.gz 8.06MB Kongsberg multibeam vendor format
0285_20100513_195828_Langseth.all.mb58.gz 8.10MB Kongsberg multibeam vendor format
0286_20100513_202835_Langseth.all.mb58.gz 8.00MB Kongsberg multibeam vendor format
0287_20100513_205829_Langseth.all.mb58.gz 8.01MB Kongsberg multibeam vendor format
0288_20100513_212837_Langseth.all.mb58.gz 8.09MB Kongsberg multibeam vendor format
0289_20100513_215843_Langseth.all.mb58.gz 7.95MB Kongsberg multibeam vendor format
0290_20100513_222835_Langseth.all.mb58.gz 8.08MB Kongsberg multibeam vendor format
0291_20100513_225831_Langseth.all.mb58.gz 8.05MB Kongsberg multibeam vendor format
0292_20100513_232844_Langseth.all.mb58.gz 7.88MB Kongsberg multibeam vendor format
0293_20100513_235843_Langseth.all.mb58.gz 1.55MB Kongsberg multibeam vendor format
0294_20100514_001230_Langseth.all.mb58.gz 7.91MB Kongsberg multibeam vendor format
0295_20100514_004243_Langseth.all.mb58.gz 7.90MB Kongsberg multibeam vendor format
0296_20100514_011235_Langseth.all.mb58.gz 7.82MB Kongsberg multibeam vendor format
0297_20100514_014235_Langseth.all.mb58.gz 8.11MB Kongsberg multibeam vendor format
0298_20100514_021248_Langseth.all.mb58.gz 7.92MB Kongsberg multibeam vendor format
0299_20100514_024240_Langseth.all.mb58.gz 7.96MB Kongsberg multibeam vendor format
0300_20100514_031232_Langseth.all.mb58.gz 7.95MB Kongsberg multibeam vendor format
0301_20100514_034233_Langseth.all.mb58.gz 7.93MB Kongsberg multibeam vendor format
0302_20100514_041241_Langseth.all.mb58.gz 7.83MB Kongsberg multibeam vendor format
0303_20100514_044248_Langseth.all.mb58.gz 7.99MB Kongsberg multibeam vendor format
0304_20100514_051236_Langseth.all.mb58.gz 7.99MB Kongsberg multibeam vendor format
0305_20100514_054248_Langseth.all.mb58.gz 7.99MB Kongsberg multibeam vendor format
0306_20100514_061248_Langseth.all.mb58.gz 7.93MB Kongsberg multibeam vendor format
0307_20100514_064245_Langseth.all.mb58.gz 8.06MB Kongsberg multibeam vendor format
0308_20100514_071233_Langseth.all.mb58.gz 8.02MB Kongsberg multibeam vendor format
0309_20100514_074231_Langseth.all.mb58.gz 7.99MB Kongsberg multibeam vendor format
0310_20100514_081238_Langseth.all.mb58.gz 7.84MB Kongsberg multibeam vendor format
0311_20100514_084233_Langseth.all.mb58.gz 7.96MB Kongsberg multibeam vendor format
0312_20100514_091246_Langseth.all.mb58.gz 7.89MB Kongsberg multibeam vendor format
0313_20100514_094237_Langseth.all.mb58.gz 7.96MB Kongsberg multibeam vendor format
0314_20100514_101241_Langseth.all.mb58.gz 7.94MB Kongsberg multibeam vendor format
0315_20100514_104232_Langseth.all.mb58.gz 7.89MB Kongsberg multibeam vendor format
0316_20100514_111238_Langseth.all.mb58.gz 7.99MB Kongsberg multibeam vendor format
0317_20100514_114239_Langseth.all.mb58.gz 7.91MB Kongsberg multibeam vendor format
0318_20100514_121244_Langseth.all.mb58.gz 7.81MB Kongsberg multibeam vendor format
0319_20100514_124245_Langseth.all.mb58.gz 7.94MB Kongsberg multibeam vendor format
0320_20100514_131245_Langseth.all.mb58.gz 7.84MB Kongsberg multibeam vendor format
0321_20100514_134231_Langseth.all.mb58.gz 7.94MB Kongsberg multibeam vendor format
0322_20100514_141242_Langseth.all.mb58.gz 7.89MB Kongsberg multibeam vendor format
0323_20100514_144236_Langseth.all.mb58.gz 7.84MB Kongsberg multibeam vendor format
0324_20100514_151238_Langseth.all.mb58.gz 7.92MB Kongsberg multibeam vendor format
0325_20100514_154244_Langseth.all.mb58.gz 7.75MB Kongsberg multibeam vendor format
0326_20100514_161239_Langseth.all.mb58.gz 7.89MB Kongsberg multibeam vendor format
0327_20100514_164230_Langseth.all.mb58.gz 7.77MB Kongsberg multibeam vendor format
0328_20100514_171230_Langseth.all.mb58.gz 7.88MB Kongsberg multibeam vendor format
0329_20100514_174229_Langseth.all.mb58.gz 8.04MB Kongsberg multibeam vendor format
0330_20100514_181235_Langseth.all.mb58.gz 7.96MB Kongsberg multibeam vendor format
0331_20100514_184237_Langseth.all.mb58.gz 7.96MB Kongsberg multibeam vendor format
0332_20100514_191246_Langseth.all.mb58.gz 7.92MB Kongsberg multibeam vendor format
0333_20100514_194246_Langseth.all.mb58.gz 7.69MB Kongsberg multibeam vendor format
0334_20100514_201242_Langseth.all.mb58.gz 8.02MB Kongsberg multibeam vendor format
0335_20100514_204243_Langseth.all.mb58.gz 7.79MB Kongsberg multibeam vendor format
0336_20100514_211233_Langseth.all.mb58.gz 8.07MB Kongsberg multibeam vendor format
0337_20100514_214239_Langseth.all.mb58.gz 7.90MB Kongsberg multibeam vendor format
0338_20100514_221231_Langseth.all.mb58.gz 7.81MB Kongsberg multibeam vendor format
0339_20100514_224235_Langseth.all.mb58.gz 8.01MB Kongsberg multibeam vendor format
0340_20100514_231236_Langseth.all.mb58.gz 8.08MB Kongsberg multibeam vendor format
0341_20100514_234242_Langseth.all.mb58.gz 7.98MB Kongsberg multibeam vendor format
0342_20100515_001245_Langseth.all.mb58.gz 7.97MB Kongsberg multibeam vendor format
0343_20100515_004237_Langseth.all.mb58.gz 7.59MB Kongsberg multibeam vendor format
0344_20100515_011239_Langseth.all.mb58.gz 8.09MB Kongsberg multibeam vendor format
0345_20100515_014234_Langseth.all.mb58.gz 8.12MB Kongsberg multibeam vendor format
0346_20100515_021238_Langseth.all.mb58.gz 8.05MB Kongsberg multibeam vendor format
0347_20100515_024240_Langseth.all.mb58.gz 8.05MB Kongsberg multibeam vendor format
0348_20100515_031235_Langseth.all.mb58.gz 8.01MB Kongsberg multibeam vendor format
0349_20100515_034235_Langseth.all.mb58.gz 7.97MB Kongsberg multibeam vendor format
0350_20100515_041240_Langseth.all.mb58.gz 7.98MB Kongsberg multibeam vendor format
0351_20100515_044240_Langseth.all.mb58.gz 7.95MB Kongsberg multibeam vendor format
0352_20100515_051231_Langseth.all.mb58.gz 8.02MB Kongsberg multibeam vendor format
0353_20100515_054240_Langseth.all.mb58.gz 8.04MB Kongsberg multibeam vendor format
0354_20100515_061239_Langseth.all.mb58.gz 7.91MB Kongsberg multibeam vendor format
0355_20100515_064231_Langseth.all.mb58.gz 8.05MB Kongsberg multibeam vendor format
0356_20100515_071239_Langseth.all.mb58.gz 7.95MB Kongsberg multibeam vendor format
0357_20100515_074234_Langseth.all.mb58.gz 8.16MB Kongsberg multibeam vendor format
0358_20100515_081239_Langseth.all.mb58.gz 8.22MB Kongsberg multibeam vendor format
0359_20100515_084233_Langseth.all.mb58.gz 7.99MB Kongsberg multibeam vendor format
0360_20100515_091230_Langseth.all.mb58.gz 7.94MB Kongsberg multibeam vendor format
0361_20100515_094233_Langseth.all.mb58.gz 8.19MB Kongsberg multibeam vendor format
0362_20100515_101236_Langseth.all.mb58.gz 7.94MB Kongsberg multibeam vendor format
0363_20100515_104236_Langseth.all.mb58.gz 7.87MB Kongsberg multibeam vendor format
0364_20100515_111231_Langseth.all.mb58.gz 8.09MB Kongsberg multibeam vendor format
0365_20100515_114233_Langseth.all.mb58.gz 8.24MB Kongsberg multibeam vendor format
0366_20100515_121236_Langseth.all.mb58.gz 8.29MB Kongsberg multibeam vendor format
0367_20100515_124240_Langseth.all.mb58.gz 8.24MB Kongsberg multibeam vendor format
0368_20100515_131236_Langseth.all.mb58.gz 8.30MB Kongsberg multibeam vendor format
0369_20100515_134239_Langseth.all.mb58.gz 8.28MB Kongsberg multibeam vendor format
0370_20100515_141236_Langseth.all.mb58.gz 8.37MB Kongsberg multibeam vendor format
0371_20100515_144233_Langseth.all.mb58.gz 8.43MB Kongsberg multibeam vendor format
0372_20100515_151235_Langseth.all.mb58.gz 8.64MB Kongsberg multibeam vendor format
0373_20100515_154236_Langseth.all.mb58.gz 8.52MB Kongsberg multibeam vendor format
0374_20100515_161236_Langseth.all.mb58.gz 8.62MB Kongsberg multibeam vendor format
0375_20100515_164239_Langseth.all.mb58.gz 8.50MB Kongsberg multibeam vendor format
0376_20100515_171229_Langseth.all.mb58.gz 8.81MB Kongsberg multibeam vendor format
0377_20100515_174230_Langseth.all.mb58.gz 8.81MB Kongsberg multibeam vendor format
0378_20100515_181229_Langseth.all.mb58.gz 8.77MB Kongsberg multibeam vendor format
0379_20100515_184234_Langseth.all.mb58.gz 8.72MB Kongsberg multibeam vendor format
0380_20100515_191240_Langseth.all.mb58.gz 8.94MB Kongsberg multibeam vendor format
0381_20100515_194239_Langseth.all.mb58.gz 9.13MB Kongsberg multibeam vendor format
0382_20100515_201231_Langseth.all.mb58.gz 9.18MB Kongsberg multibeam vendor format
0383_20100515_204239_Langseth.all.mb58.gz 9.06MB Kongsberg multibeam vendor format
0384_20100515_211232_Langseth.all.mb58.gz 9.13MB Kongsberg multibeam vendor format
0385_20100515_214239_Langseth.all.mb58.gz 8.86MB Kongsberg multibeam vendor format
0386_20100515_221228_Langseth.all.mb58.gz 8.93MB Kongsberg multibeam vendor format
0387_20100515_224232_Langseth.all.mb58.gz 8.99MB Kongsberg multibeam vendor format
0388_20100515_231240_Langseth.all.mb58.gz 8.98MB Kongsberg multibeam vendor format
0389_20100515_234241_Langseth.all.mb58.gz 8.84MB Kongsberg multibeam vendor format
0390_20100516_001241_Langseth.all.mb58.gz 8.83MB Kongsberg multibeam vendor format
0391_20100516_004230_Langseth.all.mb58.gz 8.55MB Kongsberg multibeam vendor format
0392_20100516_011231_Langseth.all.mb58.gz 8.99MB Kongsberg multibeam vendor format
0393_20100516_014234_Langseth.all.mb58.gz 8.89MB Kongsberg multibeam vendor format
0394_20100516_021239_Langseth.all.mb58.gz 8.79MB Kongsberg multibeam vendor format
0395_20100516_024233_Langseth.all.mb58.gz 8.79MB Kongsberg multibeam vendor format
0396_20100516_031231_Langseth.all.mb58.gz 8.78MB Kongsberg multibeam vendor format
0397_20100516_034228_Langseth.all.mb58.gz 8.71MB Kongsberg multibeam vendor format
0398_20100516_041227_Langseth.all.mb58.gz 8.71MB Kongsberg multibeam vendor format
0399_20100516_044231_Langseth.all.mb58.gz 8.63MB Kongsberg multibeam vendor format
0400_20100516_051239_Langseth.all.mb58.gz 8.50MB Kongsberg multibeam vendor format
0401_20100516_054237_Langseth.all.mb58.gz 8.48MB Kongsberg multibeam vendor format
0402_20100516_061231_Langseth.all.mb58.gz 8.41MB Kongsberg multibeam vendor format
0403_20100516_064230_Langseth.all.mb58.gz 8.39MB Kongsberg multibeam vendor format
0404_20100516_071232_Langseth.all.mb58.gz 8.57MB Kongsberg multibeam vendor format
0405_20100516_074230_Langseth.all.mb58.gz 8.39MB Kongsberg multibeam vendor format
0406_20100516_081239_Langseth.all.mb58.gz 6.80MB Kongsberg multibeam vendor format
0407_20100516_084240_Langseth.all.mb58.gz 6.37MB Kongsberg multibeam vendor format
0408_20100516_091238_Langseth.all.mb58.gz 7.59MB Kongsberg multibeam vendor format
0409_20100516_094228_Langseth.all.mb58.gz 7.17MB Kongsberg multibeam vendor format
0410_20100516_101234_Langseth.all.mb58.gz 6.72MB Kongsberg multibeam vendor format
0411_20100516_104239_Langseth.all.mb58.gz 8.22MB Kongsberg multibeam vendor format
0412_20100516_111243_Langseth.all.mb58.gz 8.09MB Kongsberg multibeam vendor format
0413_20100516_114232_Langseth.all.mb58.gz 8.39MB Kongsberg multibeam vendor format
0414_20100516_121231_Langseth.all.mb58.gz 8.58MB Kongsberg multibeam vendor format
0415_20100516_124239_Langseth.all.mb58.gz 9.00MB Kongsberg multibeam vendor format
0416_20100516_131226_Langseth.all.mb58.gz 10.58MB Kongsberg multibeam vendor format
0417_20100516_134233_Langseth.all.mb58.gz 24.18MB Kongsberg multibeam vendor format
0418_20100516_141228_Langseth.all.mb58.gz 25.09MB Kongsberg multibeam vendor format
0419_20100516_144228_Langseth.all.mb58.gz 26.17MB Kongsberg multibeam vendor format
0420_20100516_151227_Langseth.all.mb58.gz 26.73MB Kongsberg multibeam vendor format
0421_20100516_154227_Langseth.all.mb58.gz 26.33MB Kongsberg multibeam vendor format
0422_20100516_161228_Langseth.all.mb58.gz 26.88MB Kongsberg multibeam vendor format
0423_20100516_164228_Langseth.all.mb58.gz 26.98MB Kongsberg multibeam vendor format
0424_20100516_171227_Langseth.all.mb58.gz 26.50MB Kongsberg multibeam vendor format
0425_20100516_174228_Langseth.all.mb58.gz 11.45MB Kongsberg multibeam vendor format
0426_20100516_181239_Langseth.all.mb58.gz 337.4KB Kongsberg multibeam vendor format
0427_20100516_181529_Langseth.all.mb58.gz 20.17MB Kongsberg multibeam vendor format
0428_20100516_184528_Langseth.all.mb58.gz 21.95MB Kongsberg multibeam vendor format
0429_20100516_191529_Langseth.all.mb58.gz 22.01MB Kongsberg multibeam vendor format
0430_20100516_194528_Langseth.all.mb58.gz 19.41MB Kongsberg multibeam vendor format
0431_20100516_201528_Langseth.all.mb58.gz 19.01MB Kongsberg multibeam vendor format
0432_20100516_204527_Langseth.all.mb58.gz 22.05MB Kongsberg multibeam vendor format
0433_20100516_211531_Langseth.all.mb58.gz 17.88MB Kongsberg multibeam vendor format
0434_20100516_214530_Langseth.all.mb58.gz 6.34MB Kongsberg multibeam vendor format

Metadata Files: 1

Files File Size Description
MGL1002_Multibeam.xml NGDC created ISO metadata